Temperature
9 9 9 9 9 9 9 9 9 9 9 10 10 10 10 10 9 9 9 9 8 8 8 8 7 7 6 6 5 5 5 4 4 3 3 3 2 2
9 9 9 9 9 9 9 9 9 8 9 9 9 9 9 9 9 9 8 8 8 8 7 7 7 6 6 5 5 5 4 4 3 3 2 2 1 1
9 8 8 8 8 8 8 8 8 8 8 9 9 9 8 8 8 8 8 8 7 7 7 7 6 6 5 5 4 4 4 3 3 2 2 1 1 0
9 8 8 8 8 8 8 8 8 8 8 8 8 8 8 8 8 7 7 7 7 7 6 6 6 5 5 4 4 4 3 3 2 2 1 1 0 0
8 8 8 8 8 8 8 8 8 8 7 7 7 7 7 7 7 7 7 7 6 6 6 6 5 5 4 4 4 3 3 2 2 1 1 1 0 -0
8 8 8 8 8 8 7 7 7 7 7 7 7 7 7 7 6 6 6 6 6 6 5 5 5 4 4 4 3 3 2 2 1 1 0 0 -0 -1
8 8 8 8 8 7 7 7 7 7 7 7 6 6 6 6 6 6 5 5 5 5 5 4 4 4 3 3 3 2 2 1 1 0 -0 -0 -1 -1
8 8 7 7 7 7 7 7 7 7 6 6 6 6 6 6 6 5 5 5 4 4 4 4 4 3 3 2 2 2 1 1 0 0 -0 -1 -1 -2
7 7 7 7 7 7 7 7 6 6 6 6 6 6 6 6 5 5 5 4 4 4 3 3 3 3 2 2 2 1 1 0 -0 -0 -1 -1 -2 -2
7 7 7 7 7 6 6 6 6 6 6 6 6 6 5 5 5 5 4 4 3 3 3 2 2 2 2 2 1 1 0 -0 -0 -1 -1 -2 -2 -2
7 6 6 6 6 6 6 5 6 6 6 5 5 5 5 4 4 4 3 3 2 2 2 1 1 1 1 1 1 0 -0 -0 -1 -1 -2 -2 -2 -3
6 6 5 5 5 5 5 5 5 5 5 5 4 4 4 4 4 3 3 2 2 1 1 0 0 0 0 0 0 -0 -1 -1 -1 -2 -2 -2 -3 -3
5 5 5 5 5 5 4 4 4 4 4 4 4 3 3 3 3 3 2 2 1 1 0 -0 -0 -1 -1 -1 -0 -1 -1 -2 -2 -2 -2 -3 -3 -3
5 4 4 4 4 4 4 4 3 3 3 3 3 3 3 2 2 2 1 1 1 0 -0 -0 -1 -1 -2 -2 -2 -1 -2 -2 -2 -3 -3 -3 -3 -4
4 4 4 3 3 3 3 3 3 3 3 2 2 2 2 1 1 1 1 0 -0 -1 -1 -1 -1 -2 -2 -2 -2 -2 -2 -2 -3 -3 -3 -3 -4 -4
3 3 3 3 3 2 2 2 2 2 2 2 1 1 1 1 0 0 -0 -0 -1 -1 -2 -2 -2 -2 -3 -3 -3 -3 -3 -3 -3 -3 -4 -3 -4 -4
2 2 2 2 2 2 2 1 1 1 1 1 1 0 -0 -0 -0 -1 -1 -1 -2 -2 -2 -2 -3 -3 -3 -3 -3 -3 -3 -4 -4 -4 -4 -4 -4 -4
2 2 1 1 1 1 1 1 1 0 0 -0 -0 -1 -1 -1 -1 -2 -2 -2 -2 -2 -3 -3 -3 -3 -3 -4 -4 -4 -4 -4 -4 -4 -5 -5 -4 -4
1 1 1 1 1 1 0 0 -0 -0 -0 -1 -1 -1 -2 -2 -2 -2 -3 -3 -3 -3 -4 -4 -4 -4 -5 -5 -4 -5 -5 -5 -5 -5 -5 -5 -5 -4
0 0 0 0 0 -0 -0 -0 -1 -1 -1 -1 -2 -2 -2 -3 -3 -3 -3 -3 -4 -4 -4 -4 -5 -5 -5 -5 -5 -5 -5 -5 -5 -5 -5 -5 -5 -5
-1 -1 -1 -1 -1 -1 -1 -1 -1 -1 -1 -2 -2 -2 -3 -3 -3 -3 -4 -4 -4 -4 -5 -5 -5 -5 -5 -5 -6 -5 -5 -5 -6 -6 -6 -6 -6 -6
-1 -1 -1 -1 -1 -2 -2 -2 -2 -2 -2 -2 -3 -3 -3 -3 -4 -4 -4 -4 -5 -5 -5 -5 -5 -6 -6 -6 -6 -6 -5 -5 -5 -6 -6 -6 -6 -6
-2 -2 -2 -2 -2 -2 -2 -2 -2 -2 -3 -3 -3 -3 -4 -4 -4 -5 -5 -5 -5 -6 -6 -6 -6 -6 -6 -6 -6 -6 -6 -6 -6 -5 -6 -6 -6 -6
Wind_Speed
14 13 12 10 8 8 7 7 8 8 9 7 5 6 7 8 11 11 11 14 17 17 16 15 15 15 15 15 14 14 13 13 13 13 14 15 15 16
11 13 13 11 9 8 9 8 9 10 10 6 7 5 6 6 10 10 11 13 14 15 15 15 15 15 15 14 14 14 14 14 13 14 14 14 15 15
13 14 15 12 10 9 8 8 9 9 12 8 4 4 6 6 5 7 8 8 9 12 13 14 14 14 14 13 13 13 14 13 13 13 13 14 15 15
15 14 14 11 12 10 9 10 9 9 10 11 5 4 6 7 6 6 5 6 7 10 12 13 13 13 12 12 12 12 12 12 12 12 13 13 14 15
14 14 14 13 14 11 10 10 9 8 8 8 7 4 4 4 4 4 4 4 5 8 11 12 12 12 12 12 12 12 12 12 12 13 13 13 14 14
13 13 13 13 14 12 11 11 9 8 8 7 6 4 4 3 4 4 4 4 4 4 7 8 9 11 12 12 12 12 12 12 12 12 12 13 13 14
11 11 11 12 13 11 9 9 9 9 7 7 7 5 5 4 5 5 6 4 4 3 3 4 4 5 7 10 11 12 12 12 12 12 13 13 13 14
10 9 9 10 11 12 12 11 11 10 10 9 8 8 8 7 5 5 5 4 4 3 4 4 3 5 5 6 10 12 12 12 12 12 13 12 13 13
9 8 7 7 9 8 9 10 10 11 11 10 9 10 8 8 8 7 6 6 5 3 3 4 3 5 5 7 10 12 12 12 12 12 12 12 12 13
7 7 7 6 7 7 7 7 7 7 8 8 9 8 7 6 8 8 7 4 1 1 3 4 3 4 3 5 9 11 10 10 10 10 11 12 12 13
5 5 6 6 7 8 7 7 6 4 4 5 5 4 5 6 6 5 5 3 3 3 2 2 2 2 2 3 6 8 9 9 9 10 11 11 12 12
3 4 6 6 7 8 7 6 6 4 3 3 3 3 3 5 6 6 6 5 3 3 3 3 2 1 2 2 3 3 5 7 8 9 10 11 11 7
3 3 4 6 7 9 8 6 6 5 4 5 4 3 3 2 2 2 3 5 4 3 4 4 3 2 2 2 2 2 3 3 4 6 9 10 10 8
4 3 4 6 7 7 6 5 6 6 4 4 4 3 3 2 2 1 1 1 2 3 5 5 3 4 3 2 3 2 3 4 4 4 5 8 9 10
2 4 5 7 7 5 6 6 6 4 4 4 4 3 2 2 2 2 2 2 2 1 3 3 4 4 4 4 3 2 2 3 3 3 4 5 5 5
1 2 4 5 4 4 4 4 3 3 4 4 3 3 3 2 2 2 2 2 1 1 0 1 3 4 3 4 4 4 4 3 3 4 5 5 5 6
2 1 2 2 3 2 2 3 3 3 3 3 4 4 3 3 2 2 2 2 1 2 1 1 1 2 4 4 3 5 5 4 4 4 4 6 6 6
3 2 2 2 3 4 3 3 3 3 3 4 4 4 3 3 3 2 2 2 2 2 2 1 0 1 1 2 6 5 4 4 4 4 4 5 7 5
2 2 2 2 2 3 4 4 3 3 4 4 4 4 3 3 3 2 2 2 1 1 2 2 2 2 2 3 3 5 4 3 3 4 4 4 6 7
1 1 2 2 2 3 3 3 3 4 4 4 4 4 4 4 3 3 2 2 2 1 1 2 2 3 4 4 3 3 6 4 4 5 5 4 5 8
1 1 1 2 2 2 3 3 4 4 4 4 4 3 4 4 3 3 2 2 2 2 2 3 3 3 1 1 1 3 3 5 5 5 4 4 4 4
0 1 1 1 2 2 3 3 4 4 4 4 4 3 3 3 3 3 3 2 2 2 3 2 1 1 1 2 3 4 4 4 5 7 6 6 3 3
0 1 1 1 2 2 3 3 4 4 4 4 4 3 3 3 3 3 3 2 2 2 1 1 1 0 1 2 2 3 4 4 3 4 4 6 7 9
Wind_Direction
224 224 229 232 229 228 225 217 222 245 250 230 221 220 213 209 214 213 220 225 225 225 226 228 232 236 240 243 247 250 253 257 261 264 268 273 277 281
225 226 230 233 231 228 228 230 226 233 250 234 218 212 203 207 212 209 215 221 224 225 226 227 231 235 239 242 244 246 250 253 256 261 266 272 276 279
226 227 231 229 229 229 228 228 231 228 244 253 218 207 201 208 212 211 217 219 225 228 229 230 233 236 238 241 243 247 249 252 256 260 266 270 275 279
229 228 231 229 229 228 227 227 231 229 232 246 243 211 211 207 206 208 215 217 221 227 228 231 233 234 235 237 240 244 247 251 254 258 263 269 273 277
228 229 231 227 230 229 227 229 229 231 228 234 241 226 214 196 197 212 214 222 227 230 231 234 234 233 235 238 239 240 242 246 250 255 261 266 270 274
230 230 230 227 230 228 227 228 225 226 227 227 233 227 217 188 183 207 221 218 228 233 236 235 237 239 239 239 238 237 239 244 249 255 259 263 267 271
229 230 229 227 228 227 226 224 219 223 225 223 226 223 218 196 206 198 214 218 233 219 225 231 233 236 240 243 241 241 241 244 248 254 259 262 265 269
227 229 227 224 223 221 223 221 217 219 223 222 223 223 223 214 201 195 200 203 236 208 208 240 220 233 236 239 245 241 242 247 252 256 260 262 266 269
221 222 225 225 220 221 221 220 218 216 214 218 221 223 219 210 195 198 202 206 221 193 188 235 224 237 239 246 246 242 244 248 253 260 262 264 266 270
220 219 218 219 217 210 212 218 225 225 220 222 225 225 220 202 196 197 196 186 175 186 175 223 224 236 251 251 248 241 244 251 258 262 265 267 270 274
221 216 217 219 213 196 198 208 218 230 221 206 206 195 185 178 168 155 156 163 213 216 187 199 215 248 257 250 247 246 249 252 258 263 267 271 275 277
221 216 217 216 202 190 196 199 211 218 189 172 152 131 143 159 164 178 178 179 181 206 192 181 187 175 267 261 246 251 256 264 266 265 270 275 277 275
213 216 217 205 197 191 193 201 204 183 172 163 154 140 129 138 146 154 173 175 182 203 185 168 174 180 203 266 276 250 238 255 262 263 271 276 276 274
217 213 207 190 188 187 192 188 161 143 145 147 147 153 157 155 142 122 127 145 169 191 185 172 176 185 189 236 263 272 263 250 246 256 260 276 276 275
214 200 185 177 175 180 177 164 149 146 146 149 164 170 160 152 137 114 81 78 63 90 168 177 175 186 191 211 230 245 276 264 245 251 264 267 263 262
150 155 161 155 145 140 146 151 150 151 150 157 156 140 127 128 138 146 142 127 107 17 349 210 200 187 207 221 223 242 240 247 259 268 276 275 265 249
137 104 108 124 128 127 123 126 128 130 128 128 135 135 134 132 132 121 130 137 155 191 230 252 240 226 222 212 225 238 244 256 259 265 276 282 272 256
137 140 147 152 153 152 146 139 137 140 140 140 142 145 148 148 142 131 139 153 162 186 197 201 133 26 2 272 222 229 240 251 266 268 264 275 281 272
126 150 157 159 156 153 151 150 153 152 146 147 150 152 151 152 153 154 157 156 166 198 216 197 183 181 225 272 270 221 223 261 277 278 265 261 272 278
91 139 151 150 151 155 155 152 150 147 146 149 152 154 155 158 161 165 170 171 186 203 226 218 207 207 213 233 253 261 247 248 259 271 278 282 282 281
87 122 148 150 154 156 156 158 161 161 156 156 159 160 162 161 167 173 176 184 185 198 225 241 243 260 241 210 271 278 270 263 264 262 268 285 292 289
121 148 149 149 159 162 162 160 158 160 162 166 166 167 168 170 173 175 179 188 206 217 231 253 269 251 183 216 262 280 295 299 295 290 264 253 258 259
202 170 162 161 163 162 164 165 166 170 172 171 168 170 172 173 176 178 186 193 197 209 217 253 301 268 241 239 256 275 289 306 314 318 301 299 294 282
Height
1421 1423 1424 1426 1428 1429 1431 1432 1433 1431 1429 1430 1432 1434 1436 1438 1439 1440 1441 1441 1442 1442 1443 1443 1443 1443 1443 1442 1442 1442 1441 1440 1439 1438 1437 1436 1435 1434
1412 1414 1415 1417 1419 1421 1422 1424 1425 1425 1422 1422 1424 1427 1429 1430 1432 1432 1433 1434 1435 1435 1435 1435 1435 1435 1435 1435 1435 1434 1434 1433 1432 1431 1430 1429 1428 1427
1403 1405 1406 1408 1410 1412 1413 1415 1415 1416 1415 1414 1417 1419 1421 1422 1424 1425 1426 1426 1427 1427 1428 1428 1428 1428 1428 1427 1427 1427 1426 1425 1424 1424 1423 1422 1421 1420
1394 1396 1397 1399 1401 1403 1404 1405 1407 1408 1408 1407 1408 1411 1413 1415 1416 1417 1418 1418 1419 1419 1420 1420 1420 1420 1420 1420 1419 1419 1419 1418 1417 1416 1415 1415 1414 1413
1386 1387 1388 1391 1392 1394 1395 1397 1398 1400 1401 1401 1401 1403 1405 1407 1408 1409 1410 1411 1411 1412 1413 1413 1412 1412 1412 1412 1412 1412 1411 1411 1410 1409 1408 1408 1407 1406
1377 1379 1381 1382 1383 1385 1387 1388 1391 1392 1393 1394 1394 1395 1397 1398 1400 1401 1402 1403 1404 1405 1405 1405 1405 1405 1405 1405 1404 1404 1404 1403 1403 1402 1401 1401 1400 1399
1369 1371 1372 1374 1375 1377 1379 1380 1382 1384 1385 1386 1386 1388 1389 1390 1391 1393 1394 1395 1396 1397 1397 1398 1398 1398 1398 1398 1397 1397 1397 1396 1396 1395 1395 1394 1393 1392
1361 1363 1364 1366 1367 1369 1371 1372 1374 1376 1376 1377 1378 1379 1380 1382 1384 1385 1386 1387 1388 1389 1390 1390 1391 1390 1390 1391 1390 1390 1390 1389 1389 1388 1388 1387 1386 1386
1353 1355 1357 1358 1360 1361 1362 1364 1366 1367 1369 1370 1370 1371 1373 1374 1376 1377 1379 1379 1380 1381 1383 1382 1383 1383 1384 1383 1383 1383 1383 1382 1382 1381 1381 1380 1379 1379
1346 1348 1349 1350 1352 1354 1355 1356 1357 1359 1361 1362 1363 1365 1367 1368 1369 1371 1372 1373 1374 1375 1376 1376 1376 1376 1377 1377 1377 1376 1376 1376 1375 1375 1374 1374 1373 1372
1339 1341 1342 1344 1345 1347 1348 1349 1349 1351 1353 1355 1357 1358 1360 1361 1363 1364 1365 1366 1366 1367 1369 1370 1369 1370 1370 1370 1370 1370 1370 1369 1369 1368 1368 1367 1366 1365
1332 1334 1336 1337 1338 1340 1341 1342 1343 1344 1346 1347 1350 1351 1353 1355 1356 1358 1358 1359 1360 1361 1362 1364 1364 1364 1363 1363 1364 1364 1364 1363 1363 1362 1361 1361 1360 1358
1326 1328 1329 1331 1332 1334 1336 1336 1337 1339 1340 1341 1343 1345 1347 1349 1350 1351 1352 1353 1354 1355 1357 1358 1358 1359 1359 1357 1357 1358 1358 1357 1357 1356 1355 1354 1353 1352
1321 1323 1324 1326 1327 1329 1330 1332 1333 1334 1335 1336 1337 1339 1341 1343 1344 1346 1347 1348 1349 1351 1352 1353 1353 1354 1353 1352 1352 1352 1352 1352 1351 1350 1349 1348 1347 1346
1317 1319 1320 1321 1323 1324 1326 1327 1328 1329 1330 1332 1333 1335 1336 1338 1339 1341 1342 1343 1345 1346 1347 1347 1348 1348 1349 1348 1347 1346 1346 1346 1346 1345 1343 1342 1341 1340
1313 1314 1316 1317 1318 1320 1321 1322 1324 1325 1327 1328 1329 1331 1332 1334 1335 1336 1337 1338 1340 1341 1342 1343 1343 1344 1343 1343 1343 1342 1342 1341 1340 1339 1338 1337 1336 1334
1310 1311 1311 1312 1313 1315 1316 1318 1320 1322 1323 1325 1326 1327 1328 1330 1331 1332 1333 1334 1335 1336 1337 1338 1339 1339 1339 1339 1338 1338 1337 1337 1336 1335 1333 1331 1330 1329
1306 1306 1307 1308 1310 1311 1313 1315 1317 1318 1320 1322 1323 1324 1325 1327 1328 1329 1330 1331 1332 1332 1333 1334 1334 1334 1335 1335 1335 1334 1333 1332 1331 1330 1329 1326 1324 1324
1303 1303 1304 1306 1307 1309 1310 1312 1314 1316 1317 1319 1320 1322 1323 1324 1325 1326 1327 1328 1328 1329 1330 1330 1331 1330 1330 1330 1330 1331 1330 1328 1327 1326 1324 1322 1320 1319
1300 1301 1302 1303 1305 1306 1308 1309 1311 1313 1314 1316 1317 1319 1320 1321 1322 1323 1324 1325 1326 1326 1327 1328 1328 1327 1327 1328 1327 1326 1327 1325 1323 1321 1320 1319 1317 1316
1298 1299 1300 1301 1303 1304 1306 1307 1308 1310 1311 1313 1314 1316 1317 1318 1319 1320 1321 1322 1323 1323 1324 1324 1325 1325 1325 1325 1324 1323 1323 1322 1320 1319 1317 1315 1313 1311
1296 1297 1298 1299 1301 1302 1303 1304 1306 1307 1308 1310 1311 1313 1314 1315 1316 1317 1318 1319 1320 1321 1321 1322 1322 1323 1322 1322 1321 1320 1319 1319 1318 1316 1315 1313 1311 1308
1295 1295 1296 1297 1298 1300 1301 1302 1303 1305 1306 1307 1309 1310 1311 1312 1314 1315 1316 1317 1318 1318 1319 1319 1320 1320 1320 1319 1319 1318 1317 1316 1314 1313 1312 1311 1310 1309